Tracking 19570 objects as of 21-Feb-2019
HD Live streaming from Space Station
objects crossing your sky now

THORAD DELTA 1 DEB

Track THORAD DELTA 1 DEB now!
10-day predictions


NORAD ID: 8168
Int'l Code: 1974-089AJ
Perigee: 1,444.0 km
Apogee: 1,477.3 km
Inclination: 101.6 °
Period: 115.0 minutes
Semi major axis: 7831 km
RCS: 0.3023 m2 (medium)
Launch date: November 15, 1974
Source: United States (US)
Launch site: AIR FORCE WESTERN TEST RANGE (AFWTR)

Note: This is SATELLITE DEBRIS
aabbcc
Your satellite tracking list
Your tracking list is empty




NASA's NSSDC Master Catalog

Two Line Element Set (TLE):
1  8168U 74089AJ  19051.83969000 -.00000046 +00000-0 -14964-4 0  9992
2  8168 101.5734 010.0764 0021267 023.9017 030.8074 12.52623837023808
Source of the keplerian elements: AFSPC